Waynesville, MO

11:58 PM CDT on September 24, 2016 (GMT -0500)
Waynesville Regional At Forney Field

Weather History for KTBN - November, 2014

Change the Weather History Date:

Tuesday, November 11, 2014

  Actual Average Record
Temperature  
Mean Temperature 43 °F -  
Max Temperature 58 °F 54 °F 76 °F (2007)
Min Temperature 28 °F 39 °F 28 °F (1996)
Degree Days  
Heating Degree Days 22    
Moisture  
Dew Point 29 °F    
Average Humidity 81    
Maximum Humidity 100    
Minimum Humidity 62    
Precipitation  
Precipitation 0.00 in - - ()
Sea Level Pressure  
Sea Level Pressure 30.04 in    
Wind  
Wind Speed 11 mph (NW)    
Max Wind Speed 18 mph    
Max Gust Speed 29 mph    
Visibility 10 miles    
Events Rain    
Averages and records for this station are not official NWS values.
T = Trace of Precipitation, MM = Missing Value Source: NWS Daily Summary

Daily Weather History Graph

Daily Weather History Graph

Search for Another Location

Airport or City:

Trip Planner

Search our weather history database for the weather conditions in past years. The results will help you decide how hot, cold, wet, or windy it might be!

Date:

Astronomy

Nov. 11, 2014 Rise Set
Actual Time 6:44 AM CST 5:00 PM CST
Civil Twilight 6:16 AM CST 5:28 PM CST
Nautical Twilight 5:45 AM CST 5:59 PM CST
Astronomical Twilight 5:14 AM CST 6:30 PM CST
Moon 9:24 PM CST (11/11) 10:51 AM CST (11/11)
Length of Visible Light 11h 11m
Length of Day
10h 15m
Waning Gibbous, 76% of the Moon is Illuminated
Nov 11
Waning Gibbous
Nov 14
Last Quarter
Nov 22
New
Nov 29
First Quarter
Dec 6
Full

Hourly Weather History & Observations

Time (CST) Temp. Windchill Dew Point Humidity Pressure Visibility Wind Dir Wind Speed Gust Speed Precip Events Conditions
12:58 AM 58.6 °F - 45.5 °F 62% 29.66 in 10.0 mi SSW 6.9 mph - N/A   Mostly Cloudy
1:58 AM 56.7 °F - 45.1 °F 65% 29.69 in 10.0 mi West 6.9 mph - N/A   Mostly Cloudy
2:58 AM 48.0 °F - 40.8 °F 76% 29.75 in 10.0 mi NW 10.4 mph - N/A   Mostly Cloudy
3:58 AM 41.5 °F 33.5 °F 34.9 °F 77% 29.81 in 10.0 mi NW 16.1 mph 23.0 mph N/A   Overcast
4:43 AM 39.2 °F 31.6 °F 32.0 °F 75% 29.84 in 10.0 mi NNW 12.7 mph - N/A   Overcast
4:58 AM 38.8 °F 30.8 °F 33.1 °F 80% 29.85 in 10.0 mi NW 13.8 mph 20.7 mph N/A   Overcast
5:58 AM 36.5 °F 28.2 °F 31.5 °F 82% 29.89 in 10.0 mi NW 12.7 mph 21.9 mph N/A   Overcast
6:23 AM 35.6 °F 27.1 °F 32.0 °F 87% 29.90 in 10.0 mi NNW 12.7 mph 23.0 mph N/A   Overcast
6:47 AM 33.8 °F 24.3 °F 32.0 °F 93% 29.93 in 10.0 mi NW 13.8 mph 20.7 mph N/A   Overcast
6:57 AM 32.0 °F 25.6 °F 32.0 °F 100% 29.93 in 9.0 mi NW 6.9 mph 18.4 mph N/A Rain Light Rain
6:58 AM 33.8 °F 27.7 °F 32.0 °F 93% 29.95 in 8.0 mi WNW 6.9 mph 18.4 mph 0.00 in Rain Light Rain
7:08 AM 32.0 °F 24.2 °F 32.0 °F 100% 29.94 in 8.0 mi NW 9.2 mph 17.3 mph N/A Rain Light Rain
7:18 AM 32.0 °F 23.0 °F 32.0 °F 100% 29.95 in 10.0 mi NW 11.5 mph 21.9 mph N/A   Light Drizzle
7:27 AM 32.0 °F 21.6 °F 32.0 °F 100% 29.95 in 10.0 mi NW 15.0 mph 23.0 mph N/A   Overcast
7:58 AM 32.4 °F 23.0 °F 31.3 °F 96% 29.99 in 10.0 mi NW 12.7 mph 20.7 mph 0.00 in   Overcast
8:33 AM 32.0 °F 24.2 °F 32.0 °F 100% 29.99 in 10.0 mi NW 9.2 mph 18.4 mph N/A   Overcast
8:58 AM 31.5 °F 19.8 °F 30.4 °F 96% 30.03 in 10.0 mi NW 18.4 mph 28.8 mph 0.00 in   Light Freezing Rain
8:59 AM 32.0 °F 20.8 °F 30.2 °F 93% 30.02 in 10.0 mi NW 17.3 mph 28.8 mph N/A   Overcast
9:24 AM 32.0 °F 23.6 °F 28.4 °F 87% 30.02 in 10.0 mi NW 10.4 mph - N/A   Overcast
9:58 AM 31.1 °F 22.4 °F 27.0 °F 85% 30.05 in 10.0 mi NW 10.4 mph 18.4 mph 0.00 in   Overcast
10:13 AM 32.0 °F 23.6 °F 26.6 °F 80% 30.04 in 10.0 mi NNW 10.4 mph 19.6 mph N/A   Overcast
10:18 AM 32.0 °F 22.5 °F 28.4 °F 87% 30.04 in 10.0 mi NW 12.7 mph 19.6 mph N/A   Overcast
10:28 AM 32.0 °F 23.6 °F 26.6 °F 80% 30.04 in 10.0 mi WNW 10.4 mph 20.7 mph N/A   Overcast
10:58 AM 32.0 °F 22.5 °F 25.7 °F 78% 30.07 in 10.0 mi NNW 12.7 mph 21.9 mph N/A   Overcast
11:58 AM 32.4 °F 22.1 °F 24.6 °F 73% 30.08 in 10.0 mi NW 15.0 mph 24.2 mph N/A   Overcast
12:58 PM 33.1 °F 23.0 °F 24.4 °F 71% 30.09 in 10.0 mi NW 15.0 mph 23.0 mph N/A   Overcast
1:58 PM 33.1 °F 23.9 °F 23.9 °F 69% 30.12 in 10.0 mi NW 12.7 mph 21.9 mph N/A   Overcast
2:58 PM 32.5 °F 23.2 °F 23.7 °F 70% 30.15 in 10.0 mi NW 12.7 mph - N/A   Overcast
3:58 PM 32.0 °F 23.0 °F 23.4 °F 70% 30.17 in 10.0 mi NW 11.5 mph 20.7 mph N/A   Overcast
4:58 PM 30.2 °F 21.9 °F 22.6 °F 73% 30.20 in 10.0 mi NW 9.2 mph - N/A   Overcast
5:58 PM 29.5 °F 21.1 °F 22.6 °F 76% 30.23 in 10.0 mi NNW 9.2 mph - N/A   Overcast
6:28 PM 28.4 °F 21.2 °F 23.0 °F 80% 30.20 in 10.0 mi NNW 6.9 mph 17.3 mph N/A   Scattered Clouds
6:43 PM 28.4 °F 20.4 °F 23.0 °F 80% 30.20 in 10.0 mi NNW 8.1 mph - N/A   Mostly Cloudy
6:58 PM 28.6 °F 19.9 °F 22.5 °F 78% 30.25 in 10.0 mi NNW 9.2 mph - N/A   Mostly Cloudy
7:58 PM 30.4 °F 20.5 °F 22.3 °F 72% 30.25 in 10.0 mi North 12.7 mph - N/A   Overcast
8:58 PM 30.7 °F 23.3 °F 22.1 °F 70% 30.27 in 10.0 mi NNW 8.1 mph - N/A   Overcast
9:58 PM 30.4 °F 21.5 °F 21.7 °F 70% 30.28 in 10.0 mi NNW 10.4 mph - N/A   Overcast
10:58 PM 30.2 °F 20.2 °F 21.7 °F 71% 30.30 in 10.0 mi NNW 12.7 mph 17.3 mph N/A   Overcast
11:58 PM 29.7 °F 18.2 °F 21.7 °F 72% 30.30 in 10.0 mi North 16.1 mph - N/A   Overcast